Simultaneous Nadir Overpasses (SNOs) Predictions

Prediction of SNOs between METOP-B and NOAA-19 Satellite Orbit:

Table of predicted SNOs for the next 14.0 days since TLE Epoch: 12/23/2016
Index Date (METOP-B) Time (METOP-B) Lat,Lon (METOP-B) SZA (METOP-B ) Date (NOAA-19) Time (NOAA-19) Lat,Lon (NOAA-19) SZA (NOAA-19 ) Distance(km) Time Diff (sec)
1 12/24/2016 20:19:04 76.66,-121.87 99.99 12/24/2016 20:17:55 76.66,-121.87 99.99 0.15 69
2 12/24/2016 21:09:46 -76.66, 45.45 80.01 12/24/2016 21:08:58 -76.64, 45.46 80.04 2.50 48
3 12/24/2016 22:00:26 76.65,-147.28 99.97 12/24/2016 21:59:56 76.63,-147.24 99.96 2.23 30
4 12/24/2016 22:51:08 -76.64, 20.04 80.03 12/24/2016 22:51:00 -76.65, 19.92 80.03 3.08 8
5 12/24/2016 23:41:48 76.63,-172.69 99.95 12/24/2016 23:41:58 76.64,-172.78 99.96 2.57 10
6 12/25/2016 00:32:30 -76.63, -5.37 80.06 12/25/2016 00:33:01 -76.61, -5.44 80.07 2.41 31
7 12/25/2016 01:23:10 76.61, 161.91 99.93 12/25/2016 01:23:59 76.60, 161.86 99.93 1.46 49
8 12/25/2016 02:13:52 -76.61, -30.78 80.08 12/25/2016 02:15:02 -76.58, -30.81 80.10 3.41 70
9 01/04/2017 13:05:36 76.90, -12.57 99.50 01/04/2017 13:04:25 76.88, -14.12 99.47 39.07 71
10 01/04/2017 13:56:23 -76.69, 153.90 80.73 01/04/2017 13:55:26 -76.69, 153.91 80.73 0.24 57
11 01/04/2017 14:47:03 76.66, -38.85 99.25 01/04/2017 14:46:22 76.68, -38.76 99.26 2.61 41
12 01/04/2017 15:37:45 -76.67, 128.49 80.76 01/04/2017 15:37:27 -76.66, 128.55 80.77 2.18 18
13 01/04/2017 16:28:25 76.65, -64.26 99.22 01/04/2017 16:28:23 76.64, -64.13 99.22 3.49 2
14 01/04/2017 17:19:07 -76.65, 103.09 80.78 01/04/2017 17:19:29 -76.66, 103.00 80.77 2.44 22
15 01/04/2017 18:09:47 76.63, -89.67 99.20 01/04/2017 18:10:25 76.65, -89.67 99.22 2.47 38
16 01/04/2017 19:00:29 -76.63, 77.68 80.81 01/04/2017 19:01:30 -76.63, 77.64 80.81 1.11 61
17 01/04/2017 19:51:12 76.48,-115.59 99.03 01/04/2017 19:52:24 76.53,-114.69 99.09 24.02 72




NCC Satellite Simultaneous Nadir Overpasses (SNOs) Prediction Service
